Volver al catálogo

STARLINK-35000

ActivoComunicacionesSSO
NORAD 65278·PAYLOAD·🇺🇸 United States

Lanzado Aug 22, 2025 desde Vandenberg Space Force Base

Loading…

Próximos Pases (próximas 24 horas)

TLE

ActualizadoSource: CelesTrak SupGP

Época: Sep 14, 2026, 21:32 UTC

1 65278C 25184F   26257.89770833  .00001819  00000+0  56484-4 0  2571
2 65278  97.2831 305.9672 0000960  96.3132  38.7891 15.33431577    17

Sigue STARLINK-35000 en tiempo real con AllMySat

Download on the App Store